Simultaneous Nadir Overpasses (SNOs) Predictions

Prediction of SNOs between GOES-15 and NOAA-20 Satellite Orbit:

Table of predicted SNOs for the next 14.0 days since TLE Epoch: 5/7/2022
Index Date Time (GOES-15) GOES-15 Lat,Lon NOAA-20 Lat,Lon Distance(km) Time Diff (sec)
1 05/07/2022 21:46:46 -0.12,-127.98 0.54,-125.06 333.20 80
2 05/09/2022 10:05:54 0.10,-127.92 0.66,-130.33 275.02 80
3 05/10/2022 09:49:49 0.11,-127.88 -0.36,-125.80 237.89 80
4 05/11/2022 22:09:05 -0.10,-127.85 -0.82,-131.11 371.10 80
5 05/12/2022 21:53:00 -0.11,-127.82 0.14,-126.57 141.85 80
6 05/14/2022 10:12:08 0.09,-127.75 0.99,-131.85 466.67 80
7 05/15/2022 09:56:03 0.10,-127.71 0.02,-127.31 45.48 80
8 05/17/2022 21:56:35 -0.08,-127.61 -0.17,-128.09 53.79 80
9 05/18/2022 21:40:29 -0.09,-127.57 0.80,-123.55 457.98 80
10 05/20/2022 09:59:37 0.08,-127.49 0.39,-128.82 152.02 80
